SQUAM R @ ASHLAND: From 09/05/2018 00:00 to 09/21/2018 00:00

Date STAGE [FT] FLOW [CFS] PRECIPITATION INCREMENT [IN] AIR TEMPERATURE [DEGF] PRECIPITATION TOTAL [IN]
09/19/2018 13:00 10.34 63.0 0.00 62.4 --
09/19/2018 12:00 10.34 63.0 0.00 61.8 --
09/19/2018 11:00 10.34 63.0 0.00 61.4 --
09/19/2018 10:00 10.34 63.0 0.00 61.1 --
09/19/2018 09:00 10.34 63.0 0.00 61.2 --
09/19/2018 08:00 10.34 63.0 0.00 62.0 --
09/19/2018 07:00 10.34 63.0 0.00 62.8 --
09/19/2018 06:00 10.34 63.0 0.00 62.6 --
09/19/2018 05:00 10.34 63.0 0.00 61.4 --
09/19/2018 04:00 10.34 63.0 0.00 61.5 --
09/19/2018 03:00 10.34 63.0 0.00 62.2 --
09/19/2018 02:00 10.34 63.0 0.00 63.5 --
09/19/2018 01:00 10.34 63.0 0.00 65.7 --
09/19/2018 00:00 10.34 63.0 0.00 65.2 --
09/18/2018 23:00 10.34 63.0 0.00 65.9 --
09/18/2018 22:00 10.34 63.0 0.00 67.2 --
09/18/2018 21:00 10.34 63.0 0.00 68.2 --
09/18/2018 20:00 10.34 63.0 0.00 70.5 --
09/18/2018 19:00 10.34 63.0 0.00 73.0 --
09/18/2018 18:00 10.34 63.0 0.00 76.1 --
09/18/2018 17:00 10.34 63.0 0.00 77.9 --
09/18/2018 16:00 10.34 63.0 0.00 76.1 --
09/18/2018 15:00 10.34 63.0 0.00 74.7 --
09/18/2018 14:00 10.34 63.0 0.00 71.6 --
09/18/2018 13:00 10.34 63.0 0.00 69.9 --
09/18/2018 12:00 10.34 63.0 0.01 67.7 --
09/18/2018 11:00 10.34 63.0 0.01 66.8 --
09/18/2018 10:00 10.34 63.0 0.03 66.8 --
09/18/2018 09:00 10.34 63.0 0.21 66.0 --
09/18/2018 08:00 10.34 63.0 0.05 65.4 --
09/18/2018 07:00 10.34 63.0 0.02 65.4 --
09/18/2018 06:00 10.34 63.0 0.06 65.3 --
09/18/2018 05:00 10.34 63.0 0.00 65.2 --
09/18/2018 04:00 10.34 63.0 0.00 65.2 --
09/18/2018 03:00 10.34 63.0 0.00 64.5 --
09/18/2018 02:00 10.34 63.0 0.00 64.9 --
09/18/2018 01:00 10.34 63.0 0.00 65.2 --
09/18/2018 00:00 10.34 63.0 0.00 65.4 0.39
09/17/2018 23:00 10.34 63.0 0.00 65.7 --
09/17/2018 22:00 10.34 63.0 0.00 67.0 --
09/17/2018 21:00 10.34 63.0 0.00 68.6 --
09/17/2018 20:00 10.34 63.0 0.00 71.0 --
09/17/2018 19:00 10.34 63.0 0.00 74.8 --
09/17/2018 18:00 10.34 63.0 0.00 78.8 --
09/17/2018 17:00 10.34 63.0 0.00 81.1 --
09/17/2018 16:00 10.34 63.0 0.00 81.3 --
09/17/2018 15:00 10.34 63.0 0.00 81.5 --
09/17/2018 14:00 10.34 63.0 0.00 81.7 --
09/17/2018 13:00 10.34 63.0 0.00 80.0 --
09/17/2018 12:00 10.34 63.0 0.00 73.5 --
09/17/2018 11:00 10.34 63.0 0.00 68.8 --
09/17/2018 10:00 10.34 63.0 0.00 66.6 --
09/17/2018 09:00 10.34 63.0 0.00 65.7 --
09/17/2018 08:00 10.34 63.0 0.00 65.1 --
09/17/2018 07:00 10.34 63.0 0.00 65.2 --
09/17/2018 06:00 10.34 63.0 0.00 65.2 --
09/17/2018 05:00 10.34 63.0 0.00 65.5 --
09/17/2018 04:00 10.34 63.0 0.00 65.5 --
09/17/2018 03:00 10.34 63.0 0.00 65.3 --
09/17/2018 02:00 10.34 63.0 0.00 65.7 --
09/17/2018 01:00 10.34 63.0 0.00 66.6 --
09/17/2018 00:00 10.34 63.0 0.00 67.6 0.00
09/16/2018 23:00 10.34 63.0 0.00 68.4 --
09/16/2018 22:00 10.34 63.0 0.00 69.1 --
09/16/2018 21:00 10.34 63.0 0.00 71.1 --
09/16/2018 20:00 10.34 63.0 0.00 73.2 --
09/16/2018 19:00 10.34 63.0 0.00 77.3 --
09/16/2018 18:00 10.34 63.0 0.00 80.0 --
09/16/2018 17:00 10.34 63.0 0.00 82.9 --
09/16/2018 16:00 10.34 63.0 0.00 82.7 --
09/16/2018 15:00 10.34 63.0 0.00 79.9 --
09/16/2018 14:00 10.34 63.0 0.00 81.0 --
09/16/2018 13:00 10.34 63.0 0.00 80.3 --
09/16/2018 12:00 10.34 63.0 0.00 75.6 --
09/16/2018 11:00 10.34 63.0 0.00 70.2 --
09/16/2018 10:00 10.34 63.0 0.00 64.5 --
09/16/2018 09:00 10.34 63.0 0.00 61.7 --
09/16/2018 08:00 10.34 63.0 0.00 60.7 --
09/16/2018 07:00 10.34 63.0 0.00 60.6 --
09/16/2018 06:00 10.34 63.0 0.00 60.9 --
09/16/2018 05:00 10.34 63.0 0.00 60.7 --
09/16/2018 04:00 10.34 63.0 0.00 60.7 --
09/16/2018 03:00 10.34 63.0 0.00 60.6 --
09/16/2018 02:00 10.34 63.0 0.00 60.7 --
09/16/2018 01:00 10.34 63.0 0.00 61.5 --
09/16/2018 00:00 10.34 63.0 0.00 62.7 0.00
09/15/2018 23:00 10.34 63.0 0.00 63.7 --
09/15/2018 22:00 10.34 63.0 0.00 65.1 --
09/15/2018 21:00 10.34 63.0 0.00 67.0 --
09/15/2018 20:00 10.34 63.0 0.00 69.5 --
09/15/2018 19:00 10.34 63.0 0.00 72.6 --
09/15/2018 18:00 10.34 63.0 0.00 78.3 --
09/15/2018 17:00 10.34 63.0 0.00 79.8 --
09/15/2018 16:00 10.34 63.0 0.00 79.3 --
09/15/2018 15:00 10.34 63.0 0.00 78.1 --
09/15/2018 14:00 10.34 63.0 0.00 76.2 --
09/15/2018 13:00 10.34 63.0 0.00 73.6 --
09/15/2018 12:00 10.34 63.0 0.00 69.4 --
09/15/2018 11:00 10.34 63.0 0.00 64.6 --
09/15/2018 10:00 10.34 63.0 0.00 60.7 --
09/15/2018 09:00 10.34 63.0 0.00 58.8 --
09/15/2018 08:00 10.34 63.0 0.00 58.6 --
09/15/2018 07:00 10.34 63.0 0.00 58.2 --
09/15/2018 06:00 10.34 63.0 0.00 59.1 --
09/15/2018 05:00 10.34 63.0 0.00 60.1 --
09/15/2018 04:00 10.34 63.0 0.00 61.7 --
09/15/2018 03:00 10.34 63.0 0.00 61.0 --
09/15/2018 02:00 10.34 63.0 0.00 60.1 --
09/15/2018 01:00 10.34 63.0 0.00 59.0 --
09/15/2018 00:00 10.34 63.0 0.00 60.0 0.00
09/14/2018 23:00 10.34 63.0 0.00 60.2 --
09/14/2018 22:00 10.34 63.0 0.00 61.5 --
09/14/2018 21:00 10.34 63.0 0.00 63.5 --
09/14/2018 20:00 10.34 63.0 0.00 66.9 --
09/14/2018 19:00 10.34 63.0 0.00 70.5 --
09/14/2018 18:00 10.34 63.0 0.00 74.6 --
09/14/2018 17:00 10.34 63.0 -- 76.6 --
09/14/2018 16:00 10.34 63.0 -- 76.1 --
09/14/2018 15:00 10.31 58.6 0.00 76.1 --
09/14/2018 14:00 10.31 58.6 0.00 75.5 --
09/14/2018 13:00 10.31 58.6 0.00 72.5 --
09/14/2018 12:00 10.31 58.6 0.00 69.9 --
09/14/2018 11:00 10.31 58.6 0.00 65.1 --
09/14/2018 10:00 10.31 58.6 0.00 61.7 --
09/14/2018 09:00 10.31 58.6 0.00 59.9 --
09/14/2018 08:00 10.31 58.6 0.00 58.3 --
09/14/2018 07:00 10.31 58.6 0.00 58.8 --
09/14/2018 06:00 10.31 58.6 0.00 59.5 --
09/14/2018 05:00 10.31 58.6 0.00 61.0 --
09/14/2018 04:00 10.31 58.6 0.00 61.0 --
09/14/2018 03:00 10.31 58.6 0.00 62.3 --
09/14/2018 02:00 10.31 58.6 0.00 62.4 --
09/14/2018 01:00 10.31 58.6 0.00 62.5 --
09/14/2018 00:00 10.31 58.6 0.00 62.6 --
09/13/2018 23:00 10.31 58.6 0.00 64.0 --
09/13/2018 22:00 10.31 58.6 0.00 65.8 --
09/13/2018 21:00 10.31 58.6 0.00 67.4 --
09/13/2018 20:00 10.32 60.1 0.00 69.2 --
09/13/2018 19:00 10.32 60.1 0.00 71.4 --
09/13/2018 18:00 10.32 60.1 0.00 74.9 --
09/13/2018 17:00 10.32 60.1 0.00 74.7 --
09/13/2018 16:00 10.32 60.1 0.00 76.0 --
09/13/2018 15:00 10.32 60.1 0.00 75.8 --
09/13/2018 14:00 10.32 60.1 0.00 73.9 --
09/13/2018 13:00 10.32 60.1 0.00 71.9 --
09/13/2018 12:00 10.32 60.1 0.00 71.0 --
09/13/2018 11:00 10.32 60.1 0.00 67.1 --
09/13/2018 10:00 10.32 60.1 0.00 65.1 --
09/13/2018 09:00 10.32 60.1 0.00 63.5 --
09/13/2018 08:00 10.32 60.1 0.00 63.2 --
09/13/2018 07:00 10.32 60.1 1.00 63.1 --
09/13/2018 06:00 10.31 58.6 0.00 63.1 --
09/13/2018 05:00 10.32 60.1 2.00 63.2 --
09/13/2018 04:00 10.32 60.1 1.00 63.3 --
09/13/2018 03:00 10.31 58.6 0.00 63.2 --
09/13/2018 02:00 10.32 60.1 0.00 63.2 --
09/13/2018 01:00 10.32 60.1 0.00 63.0 --
09/13/2018 00:00 10.32 60.1 0.00 62.8 4.00
09/12/2018 23:00 10.31 58.6 0.00 62.5 --
09/12/2018 22:00 10.32 60.1 0.00 63.5 --
09/12/2018 21:00 10.32 60.1 0.00 65.1 --
09/12/2018 20:00 10.31 58.6 0.00 66.5 --
09/12/2018 19:00 10.32 60.1 0.00 68.0 --
09/12/2018 18:00 10.32 60.1 0.00 68.2 --
09/12/2018 17:00 10.31 58.6 0.00 68.6 --
09/12/2018 16:00 10.32 60.1 -- 67.8 --
09/12/2018 15:00 10.32 60.1 -- 67.4 --
09/12/2018 14:00 10.43 77.1 0.00 66.9 --
09/12/2018 13:00 10.32 60.1 0.00 64.7 --
09/12/2018 12:00 10.32 60.1 0.00 64.7 --
09/12/2018 11:00 10.32 60.1 0.00 62.9 --
09/12/2018 10:00 10.32 60.1 0.00 62.0 --
09/12/2018 09:00 10.32 60.1 0.00 61.7 --
09/12/2018 08:00 10.32 60.1 0.00 61.7 --
09/12/2018 07:00 10.32 60.1 0.00 61.5 --
09/12/2018 06:00 10.32 60.1 0.00 62.0 --
09/12/2018 05:00 10.32 60.1 0.00 62.4 --
09/12/2018 04:00 10.32 60.1 0.00 62.7 --
09/12/2018 03:00 10.32 60.1 0.00 63.1 --
09/12/2018 02:00 10.32 60.1 0.01 63.0 --
09/12/2018 01:00 10.32 60.1 0.00 63.3 --
09/12/2018 00:00 10.32 60.1 0.00 63.5 --
09/11/2018 23:00 10.32 60.1 0.00 63.8 --
09/11/2018 22:00 10.32 60.1 0.00 64.2 --
09/11/2018 21:00 10.32 60.1 0.00 64.6 --
09/11/2018 20:00 10.32 60.1 0.00 65.4 --
09/11/2018 19:00 10.32 60.1 0.00 66.0 --
09/11/2018 18:00 10.32 60.1 0.00 66.5 --
09/11/2018 17:00 10.32 60.1 0.00 65.6 --
09/11/2018 16:00 10.32 60.1 0.01 63.5 --
09/11/2018 15:00 10.32 60.1 0.02 63.1 --
09/11/2018 14:00 10.32 60.1 0.00 62.6 --
09/11/2018 13:00 10.32 60.1 0.01 62.0 --
09/11/2018 12:00 10.32 60.1 0.00 60.7 --
09/11/2018 11:00 10.32 60.1 0.17 59.2 --
09/11/2018 10:00 10.32 60.1 0.00 58.8 --
09/11/2018 09:00 10.32 60.1 0.00 58.1 --
09/11/2018 08:00 10.32 60.1 0.00 57.5 --
09/11/2018 07:00 10.32 60.1 0.01 57.1 --
09/11/2018 06:00 10.32 60.1 0.31 56.2 --
09/11/2018 05:00 10.32 60.1 0.05 56.1 --
09/11/2018 04:00 10.32 60.1 0.12 55.9 --
09/11/2018 03:00 10.32 60.1 0.16 55.9 --
09/11/2018 02:00 10.31 58.6 0.04 56.5 --
09/11/2018 01:00 10.31 58.6 0.04 56.8 --
09/11/2018 00:00 10.32 60.1 0.03 56.8 0.94
09/10/2018 23:00 10.32 60.1 0.11 56.4 --
09/10/2018 22:00 10.31 58.6 0.13 56.3 --
09/10/2018 21:00 10.31 58.6 0.12 56.6 --
09/10/2018 20:00 10.31 58.6 0.02 56.8 --
09/10/2018 19:00 10.32 60.1 0.03 56.9 --
09/10/2018 18:00 10.31 58.6 0.02 57.4 --
09/10/2018 17:00 10.31 58.6 0.00 59.4 --
09/10/2018 16:00 10.31 58.6 0.00 60.3 --
09/10/2018 15:00 10.31 58.6 0.00 59.7 --
09/10/2018 14:00 10.31 58.6 0.00 59.0 --
09/10/2018 13:00 10.31 58.6 0.00 56.9 --
09/10/2018 12:00 10.31 58.6 0.00 56.1 --
09/10/2018 11:00 10.31 58.6 0.00 54.9 --
09/10/2018 10:00 10.31 58.6 0.00 50.2 --
09/10/2018 09:00 10.31 58.6 0.00 46.3 --
09/10/2018 08:00 10.32 60.1 0.00 44.1 --
09/10/2018 07:00 10.31 58.6 0.00 43.8 --
09/10/2018 06:00 10.31 58.6 0.00 43.9 --
09/10/2018 05:00 10.31 58.6 0.00 43.8 --
09/10/2018 04:00 10.31 58.6 0.00 44.1 --
09/10/2018 03:00 10.31 58.6 0.00 44.3 --
09/10/2018 02:00 10.31 58.6 0.00 45.3 --
09/10/2018 01:00 10.31 58.6 0.00 46.2 --
09/10/2018 00:00 10.31 58.6 0.00 47.3 0.46
09/09/2018 23:00 10.31 58.6 0.00 48.5 --
09/09/2018 22:00 10.31 58.6 0.00 49.9 --
09/09/2018 21:00 10.31 58.6 0.00 51.9 --
09/09/2018 20:00 10.31 58.6 0.00 55.7 --
09/09/2018 19:00 10.31 58.6 0.00 59.2 --
09/09/2018 18:00 10.31 58.6 0.00 60.6 --
09/09/2018 17:00 10.31 58.6 0.00 61.0 --
09/09/2018 16:00 10.31 58.6 0.00 60.2 --
09/09/2018 15:00 10.32 60.1 0.00 60.3 --
09/09/2018 14:00 10.31 58.6 0.00 59.0 --
09/09/2018 13:00 10.31 58.6 0.00 57.5 --
09/09/2018 12:00 10.31 58.6 0.00 56.4 --
09/09/2018 11:00 10.31 58.6 0.00 52.7 --
09/09/2018 10:00 10.31 58.6 0.00 47.1 --
09/09/2018 09:00 10.31 58.6 0.00 43.4 --
09/09/2018 08:00 10.31 58.6 0.00 40.9 --
09/09/2018 07:00 10.31 58.6 0.00 41.1 --
09/09/2018 06:00 10.32 60.1 0.00 41.7 --
09/09/2018 05:00 10.31 58.6 0.00 42.3 --
09/09/2018 04:00 10.31 58.6 0.00 43.2 --
09/09/2018 03:00 10.31 58.6 0.00 44.4 --
09/09/2018 02:00 10.31 58.6 0.00 46.1 --
09/09/2018 01:00 10.31 58.6 0.00 48.2 --
09/09/2018 00:00 10.31 58.6 0.00 48.4 0.00
09/08/2018 23:00 10.31 58.6 0.00 48.5 --
09/08/2018 22:00 10.31 58.6 0.00 48.7 --
09/08/2018 21:00 10.31 58.6 0.00 48.8 --
09/08/2018 20:00 10.31 58.6 0.00 49.0 --
09/08/2018 19:00 10.31 58.6 0.00 49.1 --
09/08/2018 18:00 10.31 58.6 0.00 49.3 --
09/08/2018 17:00 10.31 58.6 0.00 49.4 --
09/08/2018 16:00 10.31 58.6 0.00 49.6 --
09/08/2018 15:00 10.31 58.6 0.00 49.7 --
09/08/2018 14:00 10.31 58.6 0.00 49.9 --
09/08/2018 13:00 10.31 58.6 0.00 50.0 --
09/08/2018 12:00 10.31 58.6 0.00 50.2 --
09/08/2018 11:00 10.31 58.6 0.00 50.3 --
09/08/2018 10:00 10.31 58.6 0.00 50.5 --
09/08/2018 09:00 10.31 58.6 0.00 50.6 --
09/08/2018 08:00 10.31 58.6 0.00 50.8 --
09/08/2018 07:00 10.31 58.6 0.00 50.9 --
09/08/2018 06:00 10.31 58.6 0.00 51.1 --
09/08/2018 05:00 10.31 58.6 0.00 51.3 --
09/08/2018 04:00 10.31 58.6 0.00 51.4 --
09/08/2018 03:00 10.31 58.6 0.00 51.6 --
09/08/2018 02:00 10.31 58.6 0.00 51.7 --
09/08/2018 01:00 10.31 58.6 0.00 51.9 --
09/08/2018 00:00 10.31 58.6 0.00 52.0 0.00
09/07/2018 23:00 10.31 58.6 0.00 52.2 --
09/07/2018 22:00 10.31 58.6 0.00 52.3 --
09/07/2018 21:00 10.31 58.6 0.00 52.5 --
09/07/2018 20:00 10.31 58.6 0.00 52.6 --
09/07/2018 19:00 10.31 58.6 0.00 52.8 --
09/07/2018 18:00 10.31 58.6 0.00 52.9 --
09/07/2018 17:00 10.31 58.6 0.00 53.1 --
09/07/2018 16:00 10.31 58.6 0.00 53.2 --
09/07/2018 15:00 10.31 58.6 0.00 53.4 --
09/07/2018 14:00 10.31 58.6 0.00 53.5 --
09/07/2018 13:00 10.31 58.6 0.00 53.7 --
09/07/2018 12:00 10.31 58.6 0.00 53.8 --
09/07/2018 11:00 10.31 58.6 0.00 54.0 --
09/07/2018 10:00 10.31 58.6 0.00 54.1 --
09/07/2018 09:00 10.31 58.6 0.00 54.3 --
09/07/2018 08:00 10.31 58.6 0.00 54.0 --
09/07/2018 07:00 10.31 58.6 0.00 54.6 --
09/07/2018 06:00 10.31 58.6 0.00 55.4 --
09/07/2018 05:00 10.31 58.6 0.00 56.1 --
09/07/2018 04:00 10.31 58.6 0.00 58.5 --
09/07/2018 03:00 10.31 58.6 0.00 58.8 --
09/07/2018 02:00 10.31 58.6 0.00 61.7 --
09/07/2018 01:00 10.31 58.6 0.00 62.2 --
09/07/2018 00:00 10.31 58.6 0.00 63.8 0.00
09/06/2018 23:00 10.31 58.6 0.00 65.3 --
09/06/2018 22:00 10.31 58.6 0.00 66.6 --
09/06/2018 21:00 10.31 58.6 0.00 67.8 --
09/06/2018 20:00 10.31 58.6 0.00 71.4 --
09/06/2018 19:00 10.31 58.6 0.00 75.5 --
09/06/2018 18:00 10.31 58.6 0.00 76.7 --
09/06/2018 17:00 10.31 58.6 0.00 76.6 --
09/06/2018 16:00 10.31 58.6 0.01 72.8 --
09/06/2018 15:00 10.31 58.6 0.00 75.1 --
09/06/2018 14:00 10.31 58.6 0.04 75.8 --
09/06/2018 13:00 10.31 58.6 0.00 80.0 --
09/06/2018 12:00 10.31 58.6 0.00 84.8 --
09/06/2018 11:00 10.31 58.6 0.00 82.0 --
09/06/2018 10:00 10.31 58.6 0.00 73.6 --
09/06/2018 09:00 10.31 58.6 0.00 69.5 --
09/06/2018 08:00 10.31 58.6 0.00 67.5 --
09/06/2018 07:00 10.31 58.6 0.00 67.7 --
09/06/2018 06:00 10.31 58.6 0.00 68.1 --
09/06/2018 05:00 10.31 58.6 0.00 68.8 --
09/06/2018 04:00 10.31 58.6 0.00 69.3 --
09/06/2018 03:00 10.31 58.6 0.00 69.5 --
09/06/2018 02:00 10.31 58.6 0.00 70.4 --
09/06/2018 01:00 10.31 58.6 0.00 71.0 --
09/06/2018 00:00 10.31 58.6 0.00 71.7 0.05
09/05/2018 23:00 10.31 58.6 0.00 72.3 --
09/05/2018 22:00 10.31 58.6 0.00 73.5 --
09/05/2018 21:00 10.31 58.6 0.00 75.4 --
09/05/2018 20:00 10.31 58.6 0.00 77.6 --
09/05/2018 19:00 10.32 60.1 0.00 83.1 --
09/05/2018 18:00 10.32 60.1 0.00 87.0 --
09/05/2018 17:00 10.32 60.1 0.00 87.3 --
09/05/2018 16:00 10.32 60.1 0.00 86.5 --
09/05/2018 15:00 10.32 60.1 0.00 84.9 --
09/05/2018 14:00 10.32 60.1 0.00 83.3 --
09/05/2018 13:00 -- -- -- -- --
09/05/2018 12:00 -- -- -- -- --
09/05/2018 11:00 -- -- -- -- --
09/05/2018 10:00 -- -- -- -- --
09/05/2018 09:00 -- -- -- -- --
09/05/2018 08:00 -- -- -- -- --
09/05/2018 07:00 -- -- -- -- --
09/05/2018 06:00 -- -- -- -- --
09/05/2018 05:00 -- -- -- -- --
09/05/2018 04:00 -- -- -- -- --
09/05/2018 03:00 -- -- -- -- --
09/05/2018 02:00 -- -- -- -- --
09/05/2018 01:00 -- -- -- -- --
09/05/2018 00:00 -- -- -- -- 0.00